This is the latest recevied weather packets stored in our database for station/object LX0APE-4. If no packets are shown the sender has not sent any weather packets the latest 10 day(s).
| Time | Temp. | Humidity | Pressure | Rain* | Wind** | Luminosity | Snow |
|---|---|---|---|---|---|---|---|
| 1777707420 | 17.78° C | 47% | 5017.8 hPa | 0 mm | - | - | - |
| 1777707120 | 17.78° C | 47% | 5018 hPa | 0 mm | - | - | - |
| 1777706820 | 17.78° C | 48% | 5018.2 hPa | 0 mm | - | - | - |
| 1777706520 | 17.22° C | 48% | 5018.2 hPa | 0 mm | - | - | - |
| 1777706220 | 17.22° C | 48% | 5018.1 hPa | 0 mm | - | - | - |
| 1777705920 | 17.22° C | 48% | 5018.2 hPa | 0 mm | - | - | - |
| 1777705620 | 16.67° C | 48% | 5018.2 hPa | 0 mm | - | - | - |
| 1777705320 | 16.11° C | 48% | 5018.1 hPa | 0 mm | - | - | - |
| 1777705020 | 15.56° C | 49% | 5018.2 hPa | 0 mm | - | - | - |
| 1777704724 | 15.56° C | 49% | 5018.2 hPa | 0 mm | - | - | - |
| 1777704720 | 15.56° C | 49% | 5018.2 hPa | 0 mm | - | - | - |
| 1777704420 | 15° C | 49% | 5018.3 hPa | 0 mm | - | - | - |
| 1777704120 | 15° C | 49% | 5018.2 hPa | 0 mm | - | - | - |
| 1777703820 | 15.56° C | 48% | 5018.2 hPa | 0 mm | - | - | - |
| 1777703520 | 15.56° C | 46% | 5018 hPa | 0 mm | - | - | - |
| 1777703220 | 15.56° C | 45% | 5018 hPa | 0 mm | - | - | - |
| 1777702924 | 15° C | 46% | 5017.9 hPa | 0 mm | - | - | - |
| 1777702920 | 15° C | 46% | 5017.9 hPa | 0 mm | - | - | - |
| 1777702620 | 15° C | 47% | 5018 hPa | 0 mm | - | - | - |
| 1777702320 | 14.44° C | 49% | 5018.1 hPa | 0 mm | - | - | - |
| 1777702020 | 13.89° C | 49% | 5018.2 hPa | 0 mm | - | - | - |
| 1777701720 | 13.89° C | 48% | 5018.3 hPa | 0 mm | - | - | - |
| 1777701420 | 13.33° C | 48% | 5018.3 hPa | 0 mm | - | - | - |
| 1777701120 | 12.78° C | 49% | 5018.4 hPa | 0 mm | - | - | - |
| 1777700820 | 12.78° C | 49% | 5018.4 hPa | 0 mm | - | - | - |
* Rain latest hour (hover to see other rain measurements)
** Current wind speed in m/s (hover to see current wind gust speed)